Greenville, MS

11:12 AM CDT on July 22, 2017 (GMT -0500)
Mid Delta Regional

Weather History for KGLH - September, 2014

Change the Weather History Date:

Friday, September 19, 2014

  Actual Average Record
Temperature  
Mean Temperature 77 °F 74 °F  
Max Temperature 90 °F 86 °F 100 °F (1925)
Min Temperature 64 °F 62 °F 45 °F (1981)
Degree Days  
Heating Degree Days 0 0  
Month to date heating degree days 0 0  
Since 1 July heating degree days 0 0  
Cooling Degree Days 12 9  
Month to date cooling degree days 271 224  
Year to date cooling degree days 1938 2003  
Growing Degree Days 27 (Base 50)    
Moisture  
Dew Point 65 °F    
Average Humidity 67    
Maximum Humidity 93    
Minimum Humidity 41    
Precipitation  
Precipitation 0.00 in 0.09 in 4.00 in (1953)
Month to date precipitation 0.77 1.96  
Year to date precipitation 40.49 36.52  
Sea Level Pressure  
Sea Level Pressure 29.98 in    
Wind  
Wind Speed 4 mph (ENE)    
Max Wind Speed 10 mph    
Max Gust Speed 17 mph    
Visibility 7 miles    
Events      
T = Trace of Precipitation, MM = Missing Value Source: NWS Daily Summary

Daily Weather History Graph

Daily Weather History Graph

Search for Another Location

Airport or City:

Trip Planner

Search our weather history database for the weather conditions in past years. The results will help you decide how hot, cold, wet, or windy it might be!

Date:

Astronomy

Sep. 19, 2014 Rise Set
Actual Time 6:50 AM CDT 7:04 PM CDT
Civil Twilight 6:25 AM CDT 7:29 PM CDT
Nautical Twilight 5:56 AM CDT 7:58 PM CDT
Astronomical Twilight 5:26 AM CDT 8:27 PM CDT
Moon 2:45 AM CDT (9/19) 4:24 PM CDT (9/19)
Length of Visible Light 13h 04m
Length of Day
12h 14m
Waning Crescent, 18% of the Moon is Illuminated
Sep 19
Waning Crescent
Sep 24
New
Oct 1
First Quarter
Oct 8
Full
Oct 15
Last Quarter

Hourly Weather History & Observations

Time (CDT) Temp. Heat Index Dew Point Humidity Pressure Visibility Wind Dir Wind Speed Gust Speed Precip Events Conditions
12:53 AM 71.1 °F - 66.9 °F 87% 29.99 in 10.0 mi ENE 4.6 mph - N/A   Clear
1:53 AM 70.0 °F - 66.9 °F 90% 29.99 in 10.0 mi ENE 4.6 mph - N/A   Clear
2:53 AM 70.0 °F - 66.9 °F 90% 29.97 in 10.0 mi NE 4.6 mph - N/A   Clear
3:53 AM 68.0 °F - 66.9 °F 96% 29.96 in 4.0 mi Calm Calm - N/A   Clear
4:28 AM 66.0 °F - 64.9 °F 96% 29.94 in 2.5 mi Calm Calm - N/A   Clear
4:38 AM 66.9 °F - 64.9 °F 93% 29.94 in 3.0 mi NNE 4.6 mph - N/A   Clear
4:53 AM 66.0 °F - 64.0 °F 93% 29.96 in 5.0 mi North 4.6 mph - N/A   Partly Cloudy
5:53 AM 66.9 °F - 64.9 °F 93% 29.97 in 7.0 mi NNE 4.6 mph - N/A   Clear
6:16 AM 64.9 °F - 64.0 °F 97% 29.96 in 1.8 mi NNE 3.5 mph - N/A   Clear
6:23 AM 64.9 °F - 64.0 °F 97% 29.96 in 3.0 mi North 3.5 mph - N/A   Clear
6:53 AM 66.0 °F - 64.9 °F 96% 29.98 in 6.0 mi NNE 4.6 mph - N/A   Clear
7:53 AM 69.1 °F - 66.9 °F 93% 30.01 in 8.0 mi East 3.5 mph - N/A   Partly Cloudy
8:53 AM 73.0 °F - 68.0 °F 84% 30.02 in 10.0 mi East 9.2 mph - N/A   Clear
9:53 AM 78.1 °F - 66.9 °F 68% 30.03 in 10.0 mi SE 9.2 mph - N/A   Clear
10:53 AM 81.0 °F 83.3 °F 66.9 °F 62% 30.04 in 10.0 mi Variable 6.9 mph - N/A   Partly Cloudy
11:53 AM 84.0 °F 86.3 °F 66.0 °F 55% 30.03 in 10.0 mi ENE 8.1 mph - N/A   Scattered Clouds
12:53 PM 84.9 °F 87.1 °F 66.0 °F 53% 30.02 in 10.0 mi North - - N/A   Partly Cloudy
1:53 PM 88.0 °F 90.7 °F 66.9 °F 49% 30.01 in 10.0 mi SSE 6.9 mph - N/A   Scattered Clouds
2:53 PM 88.0 °F 90.3 °F 66.0 °F 48% 29.99 in 10.0 mi Variable 4.6 mph - N/A   Clear
3:53 PM 90.0 °F 91.3 °F 64.0 °F 42% 29.97 in 10.0 mi ENE 4.6 mph - N/A   Clear
4:53 PM 89.1 °F 89.3 °F 62.1 °F 40% 29.96 in 10.0 mi Calm Calm - N/A   Partly Cloudy
5:53 PM 89.1 °F 90.0 °F 63.0 °F 42% 29.96 in 5.0 mi East 5.8 mph - N/A   Haze
6:51 PM 84.2 °F 85.6 °F 64.4 °F 51% 29.95 in 1.8 mi East 4.6 mph - N/A   Haze
6:53 PM 84.9 °F 86.1 °F 64.0 °F 49% 29.96 in 1.8 mi East 4.6 mph - N/A   Haze
6:59 PM 82.9 °F 84.4 °F 64.0 °F 53% 29.95 in 3.0 mi East 4.6 mph - N/A   Haze
7:53 PM 78.1 °F - 66.0 °F 66% 29.97 in 10.0 mi East 3.5 mph - N/A   Clear
8:53 PM 75.2 °F - 66.2 °F 73% 29.98 in 9.0 mi NE 3.5 mph - N/A   Clear
9:53 PM 75.0 °F - 64.9 °F 71% 30.00 in 9.0 mi ENE 4.6 mph - N/A   Clear
10:53 PM 72.0 °F - 64.9 °F 78% 30.01 in 10.0 mi Calm Calm - N/A   Clear
11:53 PM 72.0 °F - 66.0 °F 81% 30.01 in 10.0 mi Calm Calm - N/A   Clear